Location: Calberlah
(52.4230°N, 10.6240°E)
Time: 23:58:59
(UTC+00:00)

BlueWalker 3 - Pass Details

Date: 19 May 2025
Orbit: 460 x 472 km, 53.2° (Epoch: 14 June)

Event Time Altitude Azimuth Distance (km) Brightness Sun altitude
Rises 21:02:20 0° 287° (WNW) 2,496 6.3 -12.1°
Reaches altitude 10° 21:04:38 10° 276° (W) 1,620 5.0 -12.3°
Maximum altitude 21:07:50 29° 214° (SW) 880 2.9 -12.6°
Enters shadow 21:09:29 20° 171° (S) 1,128 3.1 -12.7°
